Location: Aalen
(48.8330°N, 10.1000°E)
Time: 20:12:24
(UTC+02:00)

CAS-6 - Pass Details

Date: 31 March 2023
Orbit: 610 x 632 km, 97.9° (Epoch: 04 June)

Event Time Altitude Azimuth Distance (km) Brightness Sun altitude
Exits shadow 23:19:05 32° 359° (N) 1,088 ? -30.3°
Drops below altitude 10° 23:21:28 10° 351° (N) 2,007 ? -30.6°
Sets 23:23:41 0° 349° (N) 2,923 ? -30.8°
